Location: Unspecified
(0.0000°N, 0.0000°E)
Time: 03:48:47
(UTC+00:00)

BEESAT - Pass Details

Date: 02 June 2019
Orbit: 701 x 709 km, 98.6° (Epoch: 16 June)

Event Time Altitude Azimuth Distance (km) Brightness Sun altitude
Rises 04:12:04 0° 157° (SSE) 3,098 ? -24.4°
Reaches altitude 10° 04:14:24 10° 151° (SSE) 2,178 ? -23.8°
Maximum altitude 04:18:58 46° 78° (ENE) 942 ? -22.8°
Drops below altitude 10° 04:23:32 10° 5° (N) 2,172 ? -21.8°
Sets 04:25:51 0° 359° (N) 3,088 ? -21.2°
